Zurück zum Katalog

STARLINK-32413

AktivKommunikationVLEO
NORAD 61590·PAYLOAD·🇺🇸 United States

Gestartet Oct 18, 2024 von Cape Canaveral Space Force Station

Loading…

Nächste Überflüge (nächste 24 Stunden)

TLE

AktuellSource: CelesTrak SupGP

Epoche: Sep 15, 2026, 03:20 UTC

1 61590C 24187S   26258.13937500 -.00034366  00000+0 -10152-2 0  2586
2 61590  53.1583 261.1228 0001360  88.6948 305.8280 15.34411147    11

Verfolge STARLINK-32413 in Echtzeit mit AllMySat

Download on the App Store